sat.trackr.live / text

‹ back to catalog

STARLINK-1471

NORAD 45735 · 2020-038F

PAYLOAD ACTIVE UNKNOWN

§ Identity

Operator
Country
US
Launch date
2020-06-13
Launch site
AFETR
Launch vehicle
Mass (kg)
RCS (m²)

Purposes: comms

External: N2YO · Heavens-Above · Gunter

§ Orbital elements

Epoch: 2026-09-09T11:37:53.006592Z

Period
92.24 min
Inclination
53.0422°
Eccentricity
0.0003022
Mean motion
15.61090340 rev/d
Perigee alt
382.5 km
Apogee alt
386.6 km
Semi-major
6,762.6 km
B*
3.3459e-4
RAAN
334.2762°
Arg perigee
16.0646°
Mean anomaly
344.0462°
Rev number
34,611

§ Raw data

STARLINK-14711 45735U 20038F   26252.48464128  .00028301  00000+0  33459-3 0  99912 45735  53.0422 334.2762 0003022  16.0646 344.0462 15.61090340346116

JSON: /api/v1/satellites/45735 · /tle

For live sub-satellite position, see the globe view (requires WebGL).

§ Visibility from observer

Set your observer location to see the next 7 days of passes ≥ 10°. The values pass through the URL so the page stays shareable.

No JS? Fill the form by hand. The geolocation button needs JavaScript.